Regional Weather Roundup
Issued by NWS

Home | Current Version | Previous Version | Text Only | Print | Product List | Glossary Off
Versions: 1 2 3 4 5 6 7 8 9 10 11 12 13 14 15 16 17 18 19 20 21 22 23 24 25 26 27 28 29 30 31 32 33 34 35 36 37 38 39 40 41 42 43 44 45 46 47 48 49 50

000
ASUS43 KDTX 012310
RWRMI
MICHIGAN HOURLY REGIONAL WEATHER ROUNDUP
NATIONAL WEATHER SERVICE DETROIT/PONTIAC MI
600 PM EST SUN MAR 01 2015

NOTE: "FAIR" INDICATES FEW OR NO CLOUDS BELOW 12,000 FEET WITH NO
SIGNIFICANT WEATHER AND/OR OBSTRUCTION TO VISIBILITY.

MIZ047>049-052>055-059>063-066>070-074>076-081>083-020000-
SOUTHEAST LOWER MICHIGAN

CITY           SKY/WX    TMP DP  RH WIND       PRES   REMARKS
ADRIAN         CLOUDY    23  18  81 SW6       30.23F
ALMA           CLOUDY    25  17  70 W9        30.20F
ANN ARBOR      CLOUDY    24  17  74 SW7       30.21F
BAD AXE        CLOUDY    23  15  70 SW6       30.18F
DETROIT CITY   CLOUDY    27  18  69 SW7       30.21F
DETROIT        MOCLDY    25  18  74 SW9       30.23F
FLINT          CLOUDY    25  14  63 W8        30.21F
GROSSE ILE     CLOUDY    25  19  80 SW7       30.21F
HILLSDALE      PTCLDY    22  17  79 W8        30.21S
HOWELL         PTCLDY    23  13  66 W7        30.19F

CITY           SKY/WX    TMP DP  RH WIND       PRES   REMARKS
JACKSON        MOCLDY    23  15  71 W8        30.21F
LAMBERTVILLE   PTCLDY    25  19  80 SW6       30.24F
LANSING        CLOUDY    25  14  63 SW8       30.20F
LAPEER         NOT AVBL
MASON          CLOUDY    24  15  67 W3        30.20F
MONROE         CLOUDY    23  18  80 SW6       30.22F
MT. CLEMENS    MOCLDY    26  18  71 SW6       30.18F
PONTIAC        PTCLDY    23  12  62 W9        30.18F
PORT HOPE        N/A     23  12  62 VRB7      30.16F
PORT HURON     PTCLDY    27  14  59 W3        30.20F
TRI CITIES     CLOUDY    25  16  68 SW10      30.19F
YPSILANTI      CLOUDY    27  17  66 SW9       30.21F
$$
MIZ043>046-050>051-056>058-064>065-071>073-077>080-020000-
SOUTHWEST LOWER MICHIGAN

CITY           SKY/WX    TMP DP  RH WIND       PRES   REMARKS
BATTLE CREEK   CLOUDY    25  17  72 S7        30.21F
BENTON HARBOR    N/A    N/A N/A N/A MISG      30.26S
BIG RAPIDS     CLOUDY    24  18  80 SW8       30.15F
COLDWATER      MOCLDY    21  15  76 W5        30.22F
HOLLAND        CLOUDY    24  18  77 SW14      30.24S
GRAND RAPIDS   CLOUDY    23  17  78 W13       30.21F
KALAMAZOO      MOCLDY    24  15  68 W8        30.23F
MARSHALL       CLOUDY    22  15  72 SW7       30.21F
MUSKEGON       CLOUDY    24  17  74 SW12      30.22F
$$
MIZ016>042-020000-
NORTHERN LOWER MICHIGAN

CITY           SKY/WX    TMP DP  RH WIND       PRES   REMARKS
ALPENA         CLOUDY    27  12  53 SW7       30.11F
BEAVER ISLAND  MOCLDY    23  17  78 SW14G21   30.08F
BELLAIRE       CLOUDY    25  14  62 SW6       30.14S
CADILLAC       CLOUDY    21  15  78 SW13      30.10F
CHARLEVOIX     MOCLDY    23  14  69 SW8       30.14F
FRANKFORT      CLOUDY    24  19  81 SW8G21    30.15F
GAYLORD        MOCLDY    21  13  71 SW10      30.07F
GRAYLING       MOCLDY    24  12  62 SW7       30.11F
HARBOR SPRINGS MOCLDY    22  15  74 SW7       30.11F
HOUGHTON LAKE  CLOUDY    22  14  71 W8        30.12F
MANISTEE       CLOUDY    23  16  74 SW8       30.17F
OSCODA         MOCLDY    25  14  64 SW14      30.14F
PELLSTON       CLOUDY    23  13  65 SW9       30.10F
TRAVERSE CITY  CLOUDY    24  14  65 SW10G17   30.13F
$$
MIZ007>008-015-020000-
EASTERN UPPER MICHIGAN

CITY           SKY/WX    TMP DP  RH WIND       PRES   REMARKS
KINROSS        CLOUDY    21  18  86 SW8       30.07F
MACKINAC ISLAN CLOUDY    22  15  72 SW10      30.08F
NEWBERRY       CLOUDY    22  17  82 S13       30.04F
S. S. MARIE    CLOUDY    22  13  68 SW10      30.06F
$$
MIZ004>006-011>014-085-020000-
CENTRAL UPPER MICHIGAN

CITY           SKY/WX    TMP DP  RH WIND       PRES   REMARKS
MANISTIQUE     PTCLDY    26  16  67 SW12G21   30.06S
ESCANABA       CLOUDY    28  14  54 SW14      30.06F
MENOMINEE      CLOUDY    25  12  58 W12       30.10S
SAWYER-GWINN   CLOUDY    23   9  54 W13       30.02S
$$
MIZ001>003-009>011-084-020000-
WESTERN UPPER MICHIGAN

CITY           SKY/WX    TMP DP  RH WIND       PRES   REMARKS
IRON MOUNTAIN  CLOUDY    21   8  57 W9        30.05S
HOUGHTON       PTCLDY    20   9  62 W21G26    30.01S
COPPER HARBOR    N/A     21   9  59 MISG      30.02F
IRONWOOD       PTCLDY    23   3  42 W18       30.03S
$$

ABBREVIATIONS USED IN REMARKS
   TC - TEMPERATURE IN CELSIUS
  WCI - WIND CHILL INDEX
   HX - HEAT INDEX
  VSB - VISIBILITY



USA.gov is the U.S. government's official web portal to all federal, state and local government web resources and services.